This is the latest recevied weather packets stored in our database for station/object KD4UFD. If no packets are shown the sender has not sent any weather packets the latest 10 day(s).
| Time | Temp. | Humidity | Pressure | Rain* | Wind** | Luminosity | Snow |
|---|---|---|---|---|---|---|---|
| 1777563744 | 16.67° C | 63% | 1014.8 hPa | 0 mm | - | 773 W/m² | - |
| 1777563440 | 16.67° C | 64% | 1014.8 hPa | 0 mm | - | 753 W/m² | - |
| 1777563140 | 16.11° C | 65% | 1014.6 hPa | 0 mm | - | 722 W/m² | - |
| 1777562836 | 16.67° C | 64% | 1014.6 hPa | 0 mm | - | 805 W/m² | - |
| 1777562534 | 16.11° C | 65% | 1014.8 hPa | 0 mm | - | 805 W/m² | - |
| 1777562231 | 15.56° C | 66% | 1014.6 hPa | 0 mm | - | 796 W/m² | - |
| 1777561929 | 16.11° C | 66% | 1014.6 hPa | 0 mm | - | 721 W/m² | - |
| 1777561626 | 16.11° C | 66% | 1014.5 hPa | 0 mm | - | 741 W/m² | - |
| 1777561322 | 16.67° C | 65% | 1014.5 hPa | 0 mm | - | 865 W/m² | - |
| 1777561022 | 16.11° C | 66% | 1014.3 hPa | 0 mm | - | 813 W/m² | - |
| 1777560717 | 16.11° C | 68% | 1014.3 hPa | 0 mm | - | 812 W/m² | - |
| 1777560415 | 16.11° C | 68% | 1014.5 hPa | 0 mm | - | 766 W/m² | - |
| 1777560113 | 15.56° C | 69% | 1014.3 hPa | 0 mm | - | 723 W/m² | - |
| 1777559809 | 15.56° C | 67% | 1014.2 hPa | 0 mm | - | 662 W/m² | - |
| 1777559505 | 15° C | 68% | 1014.4 hPa | 0 mm | - | 704 W/m² | - |
| 1777559203 | 15° C | 70% | 1014.4 hPa | 0 mm | - | 647 W/m² | - |
| 1777558897 | 15° C | 70% | 1014.6 hPa | 0 mm | - | 632 W/m² | - |
| 1777558593 | 15.56° C | 70% | 1014.4 hPa | 0 mm | - | 609 W/m² | - |
| 1777558288 | 15° C | 69% | 1014.6 hPa | 0 mm | - | 636 W/m² | - |
| 1777557985 | 15.56° C | 69% | 1014.6 hPa | 0 mm | - | 596 W/m² | - |
| 1777557682 | 15° C | 70% | 1014.4 hPa | 0 mm | - | 581 W/m² | - |
| 1777557379 | 14.44° C | 70% | 1014.5 hPa | 0 mm | - | 560 W/m² | - |
| 1777557075 | 14.44° C | 72% | 1014.7 hPa | 0 mm | - | 519 W/m² | - |
| 1777556770 | 15° C | 71% | 1014.4 hPa | 0 mm | - | 467 W/m² | - |
| 1777556468 | 15° C | 73% | 1014.2 hPa | 0 mm | - | 432 W/m² | - |
* Rain latest hour (hover to see other rain measurements)
** Current wind speed in m/s (hover to see current wind gust speed)